This is the latest recevied weather packets stored in our database for station/object UTOFI. If no packets are shown the sender has not sent any weather packets the latest 1 day(s).
| Time | Temp. | Humidity | Pressure | Rain* | Wind** | Luminosity | Snow |
|---|---|---|---|---|---|---|---|
| 1778107647 | 3.89° C | 84% | 1014.6 hPa | 0 mm | - | - | - |
| 1778106448 | 3.89° C | 79% | 1014.7 hPa | 0 mm | - | - | - |
| 1778104047 | 4.44° C | 79% | 1014.5 hPa | 0 mm | - | - | - |
| 1778096847 | 5° C | 67% | 1014.6 hPa | 0 mm | - | - | - |
| 1778093246 | 5.56° C | 72% | 1014.7 hPa | 0 mm | - | - | - |
| 1778092047 | 6.11° C | 60% | 1014.8 hPa | 0 mm | - | - | - |
| 1778090847 | 6.67° C | 66% | 1014.7 hPa | 0 mm | - | - | - |
| 1778078845 | 7.78° C | 64% | 1015.3 hPa | 0 mm | - | - | - |
| 1778076445 | 7.78° C | 66% | 1015.2 hPa | 0 mm | - | - | - |
| 1778072845 | 7.78° C | 72% | 1015.4 hPa | 0 mm | - | - | - |
| 1778071645 | 7.78° C | 75% | 1015.5 hPa | 0 mm | - | - | - |
| 1778069245 | 7.78° C | 73% | 1015.5 hPa | 0 mm | - | - | - |
| 1778065645 | 7.78° C | 65% | 1015.4 hPa | 0 mm | - | - | - |
| 1778059647 | 8.33° C | 58% | 1014.8 hPa | 0 mm | - | - | - |
| 1778057247 | 7.78° C | 66% | 1014.5 hPa | 0 mm | - | - | - |
| 1778053647 | 8.33° C | 67% | 1014.2 hPa | 0 mm | - | - | - |
| 1778052448 | 7.22° C | 69% | 1014.1 hPa | 0 mm | - | - | - |
| 1778050047 | 6.67° C | 70% | 1013.7 hPa | 0 mm | - | - | - |
| 1778048847 | 7.78° C | 66% | 1013.6 hPa | 0 mm | - | - | - |
| 1778046446 | 6.67° C | 69% | 1013.3 hPa | 0 mm | - | - | - |
| 1778045247 | 6.67° C | 71% | 1013 hPa | 0 mm | - | - | - |
| 1778044046 | 6.67° C | 73% | 1012.9 hPa | 0 mm | - | - | - |
| 1778042846 | 6.11° C | 74% | 1012.8 hPa | 0 mm | - | - | - |
| 1778041646 | 5.56° C | 81% | 1012.6 hPa | 0 mm | - | - | - |
| 1778040446 | 5.56° C | 83% | 1012.4 hPa | 0 mm | - | - | - |
* Rain latest hour (hover to see other rain measurements)
** Current wind speed in m/s (hover to see current wind gust speed)